When you browse on this site, cookies collect data to enhance your experience and personalize the content and advertising you see.
Visit our Privacy Policy to learn more. By continuing to use the site, you agree to this use of cookies and data.
  • In Lithuania
  • List of Countries
  • For 7 days
  • Water Temperature
  • Weather Map
  • Weather Widgets
  • user-avatar
    Login

    Hourly Weather Marsa Alam

    Today, 17 November, Sunday

    Time Temperature Precipitation Wind Pressure Humidity
    00:00 +19°C° 0 mm 3 mps 713 mmHg 66%
    01:00 +19°C° 0 mm 3 mps 712 mmHg 68%
    02:00 +18°C° 0 mm 2 mps 712 mmHg 71%
    03:00 +18°C° 0 mm 2 mps 712 mmHg 73%
    04:00 +19°C° 0 mm 1 mps 712 mmHg 75%
    05:00 +18°C° 0 mm 1 mps 712 mmHg 77%
    06:00 +19°C° 0 mm 1 mps 713 mmHg 72%
    07:00 +19°C° 0 mm 2 mps 713 mmHg 68%
    08:00 +20°C° 0 mm 2 mps 713 mmHg 63%
    09:00 +21°C° 0 mm 2 mps 713 mmHg 54%
    10:00 +24°C° 0 mm 2 mps 714 mmHg 45%
    11:00 +25°C° 0 mm 2 mps 714 mmHg 36%
    12:00 +25°C° 0 mm 2 mps 713 mmHg 34%
    13:00 +26°C° 0 mm 3 mps 713 mmHg 33%
    14:00 +27°C° 0 mm 3 mps 712 mmHg 31%
    15:00 +26°C° 0 mm 4 mps 712 mmHg 41%
    16:00 +23°C° 0 mm 5 mps 713 mmHg 51%
    17:00 +22°C° 0 mm 6 mps 713 mmHg 62%
    18:00 +22°C° 0 mm 5 mps 713 mmHg 64%
    19:00 +21°C° 0 mm 4 mps 713 mmHg 66%
    20:00 +21°C° 0 mm 3 mps 713 mmHg 68%
    21:00 +21°C° 0 mm 2 mps 713 mmHg 67%
    22:00 +20°C° 0 mm 2 mps 714 mmHg 67%
    23:00 +20°C° 0 mm 2 mps 714 mmHg 67%

    Tomorrow, 18 November, Monday

    Time Temperature Precipitation Wind Pressure Humidity
    00:00 +20°C° 0 mm 2 mps 713 mmHg 69%
    01:00 +21°C° 0 mm 1 mps 713 mmHg 71%
    02:00 +20°C° 0 mm 1 mps 713 mmHg 73%
    03:00 +20°C° 0 mm 1 mps 713 mmHg 75%
    04:00 +20°C° 0 mm 1 mps 713 mmHg 77%
    05:00 +20°C° 0 mm 1 mps 713 mmHg 80%
    06:00 +20°C° 0 mm 1 mps 714 mmHg 75%
    07:00 +21°C° 0 mm 1 mps 714 mmHg 71%
    08:00 +22°C° 0 mm 1 mps 714 mmHg 67%
    09:00 +23°C° 0 mm 1 mps 714 mmHg 58%
    10:00 +25°C° 0 mm 1 mps 715 mmHg 48%
    11:00 +26°C° 0 mm 2 mps 715 mmHg 38%
    12:00 +27°C° 0 mm 3 mps 714 mmHg 37%
    13:00 +27°C° 0 mm 4 mps 714 mmHg 36%
    14:00 +28°C° 0 mm 5 mps 714 mmHg 35%
    15:00 +26°C° 0 mm 5 mps 714 mmHg 43%
    16:00 +24°C° 0 mm 6 mps 714 mmHg 51%
    17:00 +23°C° 0 mm 7 mps 714 mmHg 58%
    18:00 +22°C° 0 mm 6 mps 714 mmHg 62%
    19:00 +22°C° 0 mm 5 mps 714 mmHg 65%
    20:00 +21°C° 0 mm 4 mps 715 mmHg 69%
    21:00 +21°C° 0 mm 3 mps 715 mmHg 70%
    22:00 +21°C° 0 mm 3 mps 715 mmHg 70%
    23:00 +20°C° 0 mm 2 mps 715 mmHg 71%

    Day after tomorrow, 19 November, Tuesday

    Time Temperature Precipitation Wind Pressure Humidity
    00:00 +20°C° 0 mm 2 mps 715 mmHg 71%
    01:00 +20°C° 0 mm 2 mps 714 mmHg 70%
    02:00 +19°C° 0 mm 2 mps 714 mmHg 70%
    03:00 +19°C° 0 mm 2 mps 714 mmHg 70%
    04:00 +19°C° 0 mm 2 mps 715 mmHg 70%
    05:00 +19°C° 0 mm 3 mps 715 mmHg 70%
    06:00 +20°C° 0 mm 3 mps 715 mmHg 65%
    07:00 +21°C° 0 mm 4 mps 716 mmHg 60%
    08:00 +22°C° 0 mm 4 mps 716 mmHg 54%
    09:00 +23°C° 0 mm 5 mps 716 mmHg 51%
    10:00 +24°C° 0 mm 6 mps 716 mmHg 47%
    11:00 +26°C° 0 mm 6 mps 716 mmHg 44%
    12:00 +26°C° 0 mm 6 mps 716 mmHg 43%
    13:00 +26°C° 0 mm 6 mps 715 mmHg 43%
    14:00 +26°C° 0 mm 6 mps 715 mmHg 42%
    15:00 +24°C° 0 mm 6 mps 715 mmHg 44%
    16:00 +23°C° 0 mm 6 mps 715 mmHg 47%
    17:00 +22°C° 0 mm 6 mps 715 mmHg 49%
    18:00 +21°C° 0 mm 5 mps 715 mmHg 50%
    19:00 +21°C° 0 mm 4 mps 715 mmHg 52%
    20:00 +20°C° 0 mm 3 mps 715 mmHg 54%
    21:00 +20°C° 0 mm 3 mps 715 mmHg 53%
    22:00 +20°C° 0 mm 2 mps 715 mmHg 53%
    23:00 +19°C° 0 mm 2 mps 715 mmHg 53%

    20 November, Wednesday

    Time Temperature Precipitation Wind Pressure Humidity
    00:00 +19°C° 0 mm 2 mps 715 mmHg 52%
    01:00 +19°C° 0 mm 3 mps 715 mmHg 50%
    02:00 +19°C° 0 mm 3 mps 715 mmHg 49%
    03:00 +18°C° 0 mm 3 mps 715 mmHg 56%
    04:00 +18°C° 0 mm 3 mps 715 mmHg 63%
    05:00 +18°C° 0 mm 4 mps 715 mmHg 70%
    06:00 +19°C° 0 mm 4 mps 715 mmHg 67%
    07:00 +20°C° 0 mm 5 mps 716 mmHg 64%
    08:00 +21°C° 0 mm 5 mps 716 mmHg 61%
    09:00 +22°C° 0 mm 6 mps 716 mmHg 53%
    10:00 +24°C° 0 mm 6 mps 716 mmHg 45%
    11:00 +26°C° 0 mm 6 mps 716 mmHg 37%
    12:00 +26°C° 0 mm 7 mps 716 mmHg 39%
    13:00 +26°C° 0 mm 7 mps 716 mmHg 40%
    14:00 +26°C° 0 mm 7 mps 715 mmHg 41%
    15:00 +24°C° 0 mm 7 mps 715 mmHg 47%
    16:00 +23°C° 0 mm 6 mps 715 mmHg 52%
    17:00 +21°C° 0 mm 6 mps 715 mmHg 58%
    18:00 +21°C° 0 mm 5 mps 715 mmHg 61%
    19:00 +20°C° 0 mm 4 mps 715 mmHg 65%
    20:00 +20°C° 0 mm 3 mps 716 mmHg 68%
    21:00 +19°C° 0 mm 3 mps 716 mmHg 65%
    22:00 +19°C° 0 mm 3 mps 715 mmHg 63%
    23:00 +19°C° 0 mm 3 mps 715 mmHg 60%

    21 November, Thursday

    Time Temperature Precipitation Wind Pressure Humidity
    00:00 +19°C° 0 mm 3 mps 715 mmHg 62%
    01:00 +18°C° 0 mm 3 mps 715 mmHg 63%
    02:00 +18°C° 0 mm 4 mps 715 mmHg 65%
    03:00 +18°C° 0 mm 3 mps 715 mmHg 66%
    04:00 +18°C° 0 mm 3 mps 715 mmHg 67%
    05:00 +18°C° 0 mm 3 mps 715 mmHg 68%
    06:00 +19°C° 0 mm 4 mps 715 mmHg 60%
    07:00 +20°C° 0 mm 5 mps 716 mmHg 53%
    08:00 +22°C° 0 mm 6 mps 716 mmHg 46%
    09:00 +23°C° 0 mm 7 mps 716 mmHg 41%
    10:00 +24°C° 0 mm 7 mps 716 mmHg 37%
    11:00 +24°C° 0 mm 7 mps 716 mmHg 33%
    12:00 +26°C° 0 mm 7 mps 716 mmHg 32%
    13:00 +26°C° 0 mm 7 mps 715 mmHg 31%
    14:00 +26°C° 0 mm 7 mps 715 mmHg 30%
    15:00 +24°C° 0 mm 6 mps 715 mmHg 34%
    16:00 +23°C° 0 mm 6 mps 714 mmHg 37%
    17:00 +22°C° 0 mm 5 mps 714 mmHg 41%
    18:00 +21°C° 0 mm 5 mps 715 mmHg 43%
    19:00 +20°C° 0 mm 4 mps 715 mmHg 46%
    20:00 +20°C° 0 mm 3 mps 715 mmHg 49%
    21:00 +19°C° 0 mm 3 mps 715 mmHg 50%
    22:00 +19°C° 0 mm 3 mps 715 mmHg 51%
    23:00 +19°C° 0 mm 3 mps 715 mmHg 53%

    22 November, Friday

    Time Temperature Precipitation Wind Pressure Humidity
    00:00 +18°C° 0 mm 3 mps 715 mmHg 52%
    01:00 +18°C° 0 mm 2 mps 714 mmHg 52%
    02:00 +18°C° 0 mm 2 mps 714 mmHg 51%
    03:00 +18°C° 0 mm 2 mps 714 mmHg 54%
    04:00 +17°C° 0 mm 2 mps 714 mmHg 57%
    05:00 +17°C° 0 mm 2 mps 714 mmHg 60%
    06:00 +18°C° 0 mm 3 mps 715 mmHg 57%
    07:00 +19°C° 0 mm 3 mps 715 mmHg 55%
    08:00 +20°C° 0 mm 3 mps 715 mmHg 52%
    09:00 +21°C° 0 mm 3 mps 715 mmHg 46%
    10:00 +24°C° 0 mm 3 mps 715 mmHg 41%
    11:00 +25°C° 0 mm 3 mps 716 mmHg 35%
    12:00 +25°C° 0 mm 3 mps 715 mmHg 33%
    13:00 +26°C° 0 mm 3 mps 715 mmHg 30%
    14:00 +26°C° 0 mm 3 mps 714 mmHg 28%
    15:00 +25°C° 0 mm 3 mps 714 mmHg 32%
    16:00 +24°C° 0 mm 3 mps 714 mmHg 37%
    17:00 +22°C° 0 mm 3 mps 714 mmHg 41%
    18:00 +21°C° 0 mm 3 mps 714 mmHg 44%
    19:00 +21°C° 0 mm 2 mps 714 mmHg 48%
    20:00 +21°C° 0 mm 1 mps 715 mmHg 51%
    21:00 +20°C° 0 mm 1 mps 715 mmHg 51%
    22:00 +20°C° 0 mm 1 mps 714 mmHg 51%
    23:00 +19°C° 0 mm 1 mps 714 mmHg 51%
    Show more